Time,TemperatureF,DewpointF,PressureIn,WindDirection,WindDirectionDegrees,WindSpeedMPH,WindSpeedGustMPH,Humidity,HourlyPrecipIn,Conditions,Clouds,dailyrainin,SoftwareType,DateUTC
2013-08-05 00:02:00,65.3,57.7,30.01,NE,53,0.0,2.0,76,0.00,,,0.00,WUHU216DAVISVP2,2013-08-05 07:02:00,
2013-08-05 00:07:00,65.1,57.8,30.01,North,349,0.0,1.0,77,0.00,,,0.00,WUHU216DAVISVP2,2013-08-05 07:07:00,
2013-08-05 00:12:00,65.0,57.6,30.01,North,349,0.0,1.0,77,0.00,,,0.00,WUHU216DAVISVP2,2013-08-05 07:12:00,
2013-08-05 00:17:00,64.4,57.4,30.01,West,260,0.0,1.0,78,0.00,,,0.00,WUHU216DAVISVP2,2013-08-05 07:17:00,
2013-08-05 00:22:00,63.4,57.5,30.01,WSW,253,0.0,1.0,81,0.00,,,0.00,WUHU216DAVISVP2,2013-08-05 07:22:00,
2013-08-05 00:27:00,62.9,57.4,30.02,WSW,253,0.0,1.0,82,0.00,,,0.00,WUHU216DAVISVP2,2013-08-05 07:27:00,
2013-08-05 00:32:00,62.9,57.7,30.02,ENE,60,0.0,1.0,83,0.00,,,0.00,WUHU216DAVISVP2,2013-08-05 07:32:00,
2013-08-05 00:37:00,63.3,57.8,30.01,ENE,59,0.0,1.0,82,0.00,,,0.00,WUHU216DAVISVP2,2013-08-05 07:37:00,
2013-08-05 00:42:00,63.2,57.7,30.02,West,267,0.0,1.0,82,0.00,,,0.00,WUHU216DAVISVP2,2013-08-05 07:42:00,
2013-08-05 00:47:00,62.6,57.4,30.01,West,267,0.0,1.0,83,0.00,,,0.00,WUHU216DAVISVP2,2013-08-05 07:47:00,
2013-08-05 00:52:00,62.3,57.4,30.01,West,270,0.0,1.0,84,0.00,,,0.00,WUHU216DAVISVP2,2013-08-05 07:52:00,
2013-08-05 00:57:00,62.4,57.5,30.01,ENE,65,0.0,1.0,84,0.00,,,0.00,WUHU216DAVISVP2,2013-08-05 07:57:00,
2013-08-05 01:02:00,62.6,57.4,30.01,ENE,75,0.0,1.0,83,0.00,,,0.00,WUHU216DAVISVP2,2013-08-05 08:02:00,
2013-08-05 01:07:00,62.6,57.4,30.01,NNE,12,0.0,1.0,83,0.00,,,0.00,WUHU216DAVISVP2,2013-08-05 08:07:00,
2013-08-05 01:12:00,62.6,57.4,30.01,NNE,12,0.0,1.0,83,0.00,,,0.00,WUHU216DAVISVP2,2013-08-05 08:12:00,
2013-08-05 01:17:00,62.4,57.2,30.01,NNE,33,0.0,1.0,83,0.00,,,0.00,WUHU216DAVISVP2,2013-08-05 08:17:00,
2013-08-05 01:22:00,62.3,57.1,30.01,NNE,33,0.0,1.0,83,0.00,,,0.00,WUHU216DAVISVP2,2013-08-05 08:22:00,
2013-08-05 01:27:00,62.2,57.3,30.01,NE,39,0.0,1.0,84,0.00,,,0.00,WUHU216DAVISVP2,2013-08-05 08:27:00,
2013-08-05 01:32:00,62.4,57.2,30.01,ENE,77,0.0,2.0,83,0.00,,,0.00,WUHU216DAVISVP2,2013-08-05 08:32:00,
2013-08-05 01:37:00,62.5,57.3,30.01,East,83,0.0,2.0,83,0.00,,,0.00,WUHU216DAVISVP2,2013-08-05 08:37:00,
2013-08-05 01:42:00,62.6,57.4,30.01,ENE,65,0.0,1.0,83,0.00,,,0.00,WUHU216DAVISVP2,2013-08-05 08:42:00,
2013-08-05 01:47:00,62.6,57.4,30.01,ENE,64,0.0,2.0,83,0.00,,,0.00,WUHU216DAVISVP2,2013-08-05 08:47:00,
2013-08-05 01:53:00,62.5,57.0,30.01,NE,37,0.0,2.0,82,0.00,,,0.00,WUHU216DAVISVP2,2013-08-05 08:53:00,
2013-08-05 01:58:00,62.2,57.0,30.01,East,92,0.0,2.0,83,0.00,,,0.00,WUHU216DAVISVP2,2013-08-05 08:58:00,
2013-08-05 02:03:00,62.1,56.9,30.01,NE,56,0.0,2.0,83,0.00,,,0.00,WUHU216DAVISVP2,2013-08-05 09:03:00,
2013-08-05 02:08:00,61.9,56.7,30.01,NE,56,0.0,1.0,83,0.00,,,0.00,WUHU216DAVISVP2,2013-08-05 09:08:00,
2013-08-05 02:14:00,61.6,56.7,30.01,NE,56,0.0,1.0,84,0.00,,,0.00,WUHU216DAVISVP2,2013-08-05 09:14:00,
2013-08-05 02:19:00,61.4,56.5,30.01,ENE,57,0.0,1.0,84,0.00,,,0.00,WUHU216DAVISVP2,2013-08-05 09:19:00,
2013-08-05 02:25:00,61.2,56.7,30.01,NE,56,0.0,1.0,85,0.00,,,0.00,WUHU216DAVISVP2,2013-08-05 09:25:00,
2013-08-05 02:30:00,61.0,56.5,30.01,ENE,57,0.0,1.0,85,0.00,,,0.00,WUHU216DAVISVP2,2013-08-05 09:30:00,
2013-08-05 02:35:00,60.9,56.4,30.01,NE,56,0.0,1.0,85,0.00,,,0.00,WUHU216DAVISVP2,2013-08-05 09:35:00,
2013-08-05 02:40:00,60.9,56.7,30.01,ENE,60,0.0,0.0,86,0.00,,,0.00,WUHU216DAVISVP2,2013-08-05 09:40:00,
2013-08-05 02:45:00,60.9,56.7,30.01,ENE,76,0.0,0.0,86,0.00,,,0.00,WUHU216DAVISVP2,2013-08-05 09:45:00,
2013-08-05 02:50:00,60.7,56.5,30.01,ENE,76,0.0,0.0,86,0.00,,,0.00,WUHU216DAVISVP2,2013-08-05 09:50:00,
2013-08-05 02:56:00,60.4,56.2,30.01,ENE,76,0.0,0.0,86,0.00,,,0.00,WUHU216DAVISVP2,2013-08-05 09:56:00,
2013-08-05 03:00:00,60.0,55.8,30.01,ENE,76,0.0,0.0,86,0.00,,,0.00,WUHU216DAVISVP2,2013-08-05 10:00:00,
2013-08-05 03:06:00,59.8,56.2,30.01,ENE,76,0.0,0.0,88,0.00,,,0.00,WUHU216DAVISVP2,2013-08-05 10:06:00,
2013-08-05 03:10:00,59.7,56.1,30.01,ENE,77,0.0,0.0,88,0.00,,,0.00,WUHU216DAVISVP2,2013-08-05 10:10:00,
2013-08-05 03:16:00,59.6,56.0,30.02,ENE,76,0.0,0.0,88,0.00,,,0.00,WUHU216DAVISVP2,2013-08-05 10:16:00,
2013-08-05 03:21:00,59.5,56.2,30.01,ENE,76,0.0,0.0,89,0.00,,,0.00,WUHU216DAVISVP2,2013-08-05 10:21:00,
2013-08-05 03:26:00,59.3,56.0,30.01,ENE,76,0.0,0.0,89,0.00,,,0.00,WUHU216DAVISVP2,2013-08-05 10:26:00,
2013-08-05 03:31:00,59.3,56.0,30.02,ENE,75,0.0,0.0,89,0.00,,,0.00,WUHU216DAVISVP2,2013-08-05 10:31:00,
2013-08-05 03:37:00,59.1,55.9,30.01,ENE,75,0.0,0.0,89,0.00,,,0.00,WUHU216DAVISVP2,2013-08-05 10:37:00,
2013-08-05 03:42:00,59.0,55.7,30.01,ENE,76,0.0,0.0,89,0.00,,,0.00,WUHU216DAVISVP2,2013-08-05 10:42:00,
2013-08-05 03:47:00,59.0,56.0,30.01,ENE,76,0.0,0.0,90,0.00,,,0.00,WUHU216DAVISVP2,2013-08-05 10:47:00,
2013-08-05 03:52:00,59.1,56.2,30.01,ENE,76,0.0,0.0,90,0.00,,,0.00,WUHU216DAVISVP2,2013-08-05 10:52:00,
2013-08-05 03:57:00,59.1,56.2,30.01,ENE,77,0.0,0.0,90,0.00,,,0.00,WUHU216DAVISVP2,2013-08-05 10:57:00,
2013-08-05 04:02:00,59.0,56.0,30.01,ENE,75,0.0,0.0,90,0.00,,,0.00,WUHU216DAVISVP2,2013-08-05 11:02:00,
2013-08-05 04:07:00,58.8,55.8,30.01,ENE,75,0.0,0.0,90,0.00,,,0.00,WUHU216DAVISVP2,2013-08-05 11:07:00,
2013-08-05 04:13:00,58.5,55.5,30.01,ENE,77,0.0,0.0,90,0.00,,,0.00,WUHU216DAVISVP2,2013-08-05 11:13:00,
2013-08-05 04:18:00,58.2,55.3,30.01,ENE,76,0.0,0.0,90,0.00,,,0.00,WUHU216DAVISVP2,2013-08-05 11:18:00,
2013-08-05 04:22:00,57.9,55.0,30.01,ENE,76,0.0,0.0,90,0.00,,,0.00,WUHU216DAVISVP2,2013-08-05 11:22:00,
2013-08-05 04:29:00,57.5,54.6,30.01,ENE,77,0.0,0.0,90,0.00,,,0.00,WUHU216DAVISVP2,2013-08-05 11:29:00,
2013-08-05 04:34:00,57.2,54.6,30.01,ENE,77,0.0,0.0,91,0.00,,,0.00,WUHU216DAVISVP2,2013-08-05 11:34:00,
2013-08-05 04:39:00,57.0,54.4,30.01,ENE,76,0.0,0.0,91,0.00,,,0.00,WUHU216DAVISVP2,2013-08-05 11:39:00,
2013-08-05 04:44:00,56.8,54.5,30.01,ENE,76,0.0,0.0,92,0.00,,,0.00,WUHU216DAVISVP2,2013-08-05 11:44:00,
2013-08-05 04:49:00,56.8,54.5,30.01,ENE,76,0.0,0.0,92,0.00,,,0.00,WUHU216DAVISVP2,2013-08-05 11:49:00,
2013-08-05 04:54:00,56.7,54.4,30.01,ENE,76,0.0,0.0,92,0.00,,,0.00,WUHU216DAVISVP2,2013-08-05 11:54:00,
2013-08-05 05:00:00,56.5,54.5,30.01,ENE,77,0.0,0.0,93,0.00,,,0.00,WUHU216DAVISVP2,2013-08-05 12:00:00,
2013-08-05 05:05:00,56.5,54.5,30.02,ENE,77,0.0,0.0,93,0.00,,,0.00,WUHU216DAVISVP2,2013-08-05 12:05:00,
2013-08-05 05:10:00,56.3,54.3,30.02,ENE,76,0.0,0.0,93,0.00,,,0.00,WUHU216DAVISVP2,2013-08-05 12:10:00,
2013-08-05 05:15:00,56.1,54.1,30.02,ENE,76,0.0,0.0,93,0.00,,,0.00,WUHU216DAVISVP2,2013-08-05 12:15:00,
2013-08-05 05:20:00,56.1,54.4,30.02,ENE,76,0.0,0.0,94,0.00,,,0.00,WUHU216DAVISVP2,2013-08-05 12:20:00,
2013-08-05 05:25:00,56.0,54.3,30.02,ENE,76,0.0,0.0,94,0.00,,,0.00,WUHU216DAVISVP2,2013-08-05 12:25:00,
2013-08-05 05:30:00,55.9,54.2,30.02,ENE,76,0.0,0.0,94,0.00,,,0.00,WUHU216DAVISVP2,2013-08-05 12:30:00,
2013-08-05 05:35:00,55.8,54.1,30.02,ENE,76,0.0,0.0,94,0.00,,,0.00,WUHU216DAVISVP2,2013-08-05 12:35:00,
2013-08-05 05:40:00,55.9,54.2,30.02,ENE,77,0.0,0.0,94,0.00,,,0.00,WUHU216DAVISVP2,2013-08-05 12:40:00,
2013-08-05 05:46:00,55.9,54.2,30.02,ENE,77,0.0,0.0,94,0.00,,,0.00,WUHU216DAVISVP2,2013-08-05 12:46:00,
2013-08-05 05:51:00,56.0,54.6,30.02,ENE,76,0.0,0.0,95,0.00,,,0.00,WUHU216DAVISVP2,2013-08-05 12:51:00,
2013-08-05 05:57:00,56.1,54.6,30.02,ENE,76,0.0,1.0,95,0.00,,,0.00,WUHU216DAVISVP2,2013-08-05 12:57:00,
2013-08-05 06:02:00,56.1,54.7,30.02,ENE,76,0.0,1.0,95,0.00,,,0.00,WUHU216DAVISVP2,2013-08-05 13:02:00,
2013-08-05 06:07:00,56.2,54.8,30.02,ENE,75,0.0,1.0,95,0.00,,,0.00,WUHU216DAVISVP2,2013-08-05 13:07:00,
2013-08-05 06:12:00,56.3,54.8,30.02,ENE,77,0.0,1.0,95,0.00,,,0.00,WUHU216DAVISVP2,2013-08-05 13:12:00,
2013-08-05 06:17:00,56.3,54.8,30.02,ENE,76,0.0,1.0,95,0.00,,,0.00,WUHU216DAVISVP2,2013-08-05 13:17:00,
2013-08-05 06:22:00,56.2,54.5,30.02,ENE,76,0.0,1.0,94,0.00,,,0.00,WUHU216DAVISVP2,2013-08-05 13:22:00,
2013-08-05 06:27:00,56.1,54.4,30.03,ENE,77,0.0,0.0,94,0.00,,,0.00,WUHU216DAVISVP2,2013-08-05 13:27:00,
2013-08-05 06:32:00,56.1,54.6,30.03,ENE,76,0.0,0.0,95,0.00,,,0.00,WUHU216DAVISVP2,2013-08-05 13:32:00,
2013-08-05 06:37:00,56.4,54.9,30.03,ENE,75,0.0,0.0,95,0.00,,,0.00,WUHU216DAVISVP2,2013-08-05 13:37:00,
2013-08-05 06:43:00,57.0,55.5,30.03,ENE,75,0.0,1.0,95,0.00,,,0.00,WUHU216DAVISVP2,2013-08-05 13:43:00,
2013-08-05 06:48:00,57.7,56.2,30.03,ENE,75,0.0,1.0,95,0.00,,,0.00,WUHU216DAVISVP2,2013-08-05 13:48:00,
2013-08-05 06:53:00,59.1,57.6,30.03,ENE,75,0.0,1.0,95,0.00,,,0.00,WUHU216DAVISVP2,2013-08-05 13:53:00,
2013-08-05 06:58:00,60.5,58.8,30.03,ENE,75,0.0,0.0,94,0.00,,,0.00,WUHU216DAVISVP2,2013-08-05 13:58:00,
2013-08-05 07:03:00,61.6,58.6,30.03,ENE,75,0.0,0.0,90,0.00,,,0.00,WUHU216DAVISVP2,2013-08-05 14:03:00,
2013-08-05 07:08:00,62.4,58.5,30.03,ENE,75,0.0,0.0,87,0.00,,,0.00,WUHU216DAVISVP2,2013-08-05 14:08:00,
2013-08-05 07:13:00,63.3,58.4,30.03,ENE,75,0.0,0.0,84,0.00,,,0.00,WUHU216DAVISVP2,2013-08-05 14:13:00,
2013-08-05 07:18:00,64.4,58.2,30.03,ENE,75,0.0,0.0,80,0.00,,,0.00,WUHU216DAVISVP2,2013-08-05 14:18:00,
2013-08-05 07:23:00,64.2,57.6,30.04,ENE,75,0.0,0.0,79,0.00,,,0.00,WUHU216DAVISVP2,2013-08-05 14:23:00,
2013-08-05 07:28:00,64.7,58.1,30.04,ENE,75,0.0,0.0,79,0.00,,,0.00,WUHU216DAVISVP2,2013-08-05 14:28:00,
2013-08-05 07:33:00,65.5,58.2,30.04,ENE,75,0.0,0.0,77,0.00,,,0.00,WUHU216DAVISVP2,2013-08-05 14:33:00,
2013-08-05 07:38:00,66.2,58.0,30.04,ENE,75,0.0,0.0,75,0.00,,,0.00,WUHU216DAVISVP2,2013-08-05 14:38:00,
2013-08-05 07:43:00,66.5,58.0,30.04,East,98,0.0,1.0,74,0.00,,,0.00,WUHU216DAVISVP2,2013-08-05 14:43:00,
2013-08-05 07:48:00,66.4,57.9,30.04,NE,42,0.0,1.0,74,0.00,,,0.00,WUHU216DAVISVP2,2013-08-05 14:48:00,
2013-08-05 07:53:00,67.0,58.6,30.04,NE,45,0.0,1.0,74,0.00,,,0.00,WUHU216DAVISVP2,2013-08-05 14:53:00,
2013-08-05 07:58:00,67.3,58.5,30.04,NE,46,0.0,1.0,73,0.00,,,0.00,WUHU216DAVISVP2,2013-08-05 14:58:00,
2013-08-05 08:03:00,67.9,59.1,30.04,ENE,70,0.0,1.0,73,0.00,,,0.00,WUHU216DAVISVP2,2013-08-05 15:03:00,
2013-08-05 08:08:00,68.4,58.8,30.04,SW,234,0.0,1.0,71,0.00,,,0.00,WUHU216DAVISVP2,2013-08-05 15:08:00,
2013-08-05 08:13:00,68.0,58.8,30.04,SW,235,0.0,1.0,72,0.00,,,0.00,WUHU216DAVISVP2,2013-08-05 15:13:00,
2013-08-05 08:19:00,68.2,59.0,30.04,South,180,0.0,1.0,72,0.00,,,0.00,WUHU216DAVISVP2,2013-08-05 15:19:00,
2013-08-05 08:24:00,68.8,59.2,30.05,SW,228,0.0,1.0,71,0.00,,,0.00,WUHU216DAVISVP2,2013-08-05 15:24:00,
2013-08-05 08:29:00,69.5,59.5,30.04,SW,229,0.0,1.0,70,0.00,,,0.00,WUHU216DAVISVP2,2013-08-05 15:29:00,
2013-08-05 08:34:00,69.9,59.4,30.05,SW,226,0.0,2.0,69,0.00,,,0.00,WUHU216DAVISVP2,2013-08-05 15:34:00,
2013-08-05 08:39:00,70.5,59.6,30.05,SE,127,0.0,2.0,68,0.00,,,0.00,WUHU216DAVISVP2,2013-08-05 15:39:00,
2013-08-05 08:45:00,70.2,58.9,30.05,SSE,167,1.0,2.0,67,0.00,,,0.00,WUHU216DAVISVP2,2013-08-05 15:45:00,
2013-08-05 08:50:00,70.1,59.2,30.05,WSW,238,1.0,2.0,68,0.00,,,0.00,WUHU216DAVISVP2,2013-08-05 15:50:00,
2013-08-05 08:55:00,68.1,57.7,30.05,SW,228,3.0,4.0,69,0.00,,,0.00,WUHU216DAVISVP2,2013-08-05 15:55:00,
2013-08-05 09:00:00,66.9,57.7,30.05,SW,218,2.0,4.0,72,0.00,,,0.00,WUHU216DAVISVP2,2013-08-05 16:00:00,
2013-08-05 09:05:00,66.3,57.8,30.05,SSW,195,2.0,4.0,74,0.00,,,0.00,WUHU216DAVISVP2,2013-08-05 16:05:00,
2013-08-05 09:10:00,67.0,58.9,30.05,SSE,160,0.0,4.0,75,0.00,,,0.00,WUHU216DAVISVP2,2013-08-05 16:10:00,
2013-08-05 09:15:00,67.9,58.5,30.05,SSW,212,0.0,4.0,72,0.00,,,0.00,WUHU216DAVISVP2,2013-08-05 16:15:00,
2013-08-05 09:20:00,67.9,58.1,30.05,SW,228,1.0,4.0,71,0.00,,,0.00,WUHU216DAVISVP2,2013-08-05 16:20:00,
2013-08-05 09:25:00,68.3,58.7,30.05,WSW,253,2.0,3.0,71,0.00,,,0.00,WUHU216DAVISVP2,2013-08-05 16:25:00,
2013-08-05 09:31:00,68.7,58.7,30.05,SW,218,2.0,4.0,70,0.00,,,0.00,WUHU216DAVISVP2,2013-08-05 16:31:00,
2013-08-05 09:36:00,69.0,58.8,30.05,ESE,115,0.0,4.0,70,0.00,,,0.00,WUHU216DAVISVP2,2013-08-05 16:36:00,
2013-08-05 09:41:00,70.0,59.1,30.05,West,267,0.0,3.0,68,0.00,,,0.00,WUHU216DAVISVP2,2013-08-05 16:41:00,
2013-08-05 09:46:00,70.8,59.1,30.05,SW,221,0.0,2.0,66,0.00,,,0.00,WUHU216DAVISVP2,2013-08-05 16:46:00,
2013-08-05 09:51:00,71.9,59.7,30.05,North,1,0.0,2.0,65,0.00,,,0.00,WUHU216DAVISVP2,2013-08-05 16:51:00,
2013-08-05 09:56:00,72.6,59.5,30.05,ENE,58,0.0,1.0,63,0.00,,,0.00,WUHU216DAVISVP2,2013-08-05 16:56:00,
2013-08-05 10:02:00,73.4,59.6,30.05,WSW,240,0.0,1.0,62,0.00,,,0.00,WUHU216DAVISVP2,2013-08-05 17:02:00,
2013-08-05 10:07:00,73.7,59.6,30.05,East,89,0.0,2.0,61,0.00,,,0.00,WUHU216DAVISVP2,2013-08-05 17:07:00,
2013-08-05 10:12:00,73.1,59.5,30.05,SW,235,0.0,3.0,62,0.00,,,0.00,WUHU216DAVISVP2,2013-08-05 17:12:00,
2013-08-05 10:16:00,73.3,59.7,30.05,SW,218,0.0,3.0,62,0.00,,,0.00,WUHU216DAVISVP2,2013-08-05 17:16:00,
2013-08-05 10:22:00,73.9,60.3,30.05,SSE,166,0.0,3.0,62,0.00,,,0.00,WUHU216DAVISVP2,2013-08-05 17:22:00,
2013-08-05 10:27:00,74.8,60.2,30.05,WSW,243,0.0,3.0,60,0.00,,,0.00,WUHU216DAVISVP2,2013-08-05 17:27:00,
2013-08-05 10:32:00,75.3,60.2,30.05,WSW,251,0.0,2.0,59,0.00,,,0.00,WUHU216DAVISVP2,2013-08-05 17:32:00,
2013-08-05 10:37:00,75.5,59.9,30.05,ENE,75,0.0,5.0,58,0.00,,,0.00,WUHU216DAVISVP2,2013-08-05 17:37:00,
2013-08-05 10:42:00,75.8,60.2,30.05,WSW,247,0.0,5.0,58,0.00,,,0.00,WUHU216DAVISVP2,2013-08-05 17:42:00,
2013-08-05 10:48:00,75.7,59.9,30.05,SW,231,4.0,6.0,58,0.00,,,0.00,WUHU216DAVISVP2,2013-08-05 17:48:00,
2013-08-05 10:52:00,74.8,60.2,30.05,WSW,242,1.0,6.0,60,0.00,,,0.00,WUHU216DAVISVP2,2013-08-05 17:52:00,
2013-08-05 10:58:00,75.8,59.5,30.05,WSW,243,3.0,6.0,57,0.00,,,0.00,WUHU216DAVISVP2,2013-08-05 17:58:00,
2013-08-05 11:03:00,76.1,60.4,30.05,SW,226,0.0,6.0,58,0.00,,,0.00,WUHU216DAVISVP2,2013-08-05 18:03:00,
2013-08-05 11:08:00,76.8,60.1,30.05,SW,231,1.0,6.0,56,0.00,,,0.00,WUHU216DAVISVP2,2013-08-05 18:08:00,
2013-08-05 11:13:00,76.9,60.2,30.05,NNE,21,1.0,5.0,56,0.00,,,0.00,WUHU216DAVISVP2,2013-08-05 18:13:00,
2013-08-05 11:18:00,77.0,60.3,30.05,WSW,250,3.0,6.0,56,0.00,,,0.00,WUHU216DAVISVP2,2013-08-05 18:18:00,
2013-08-05 11:23:00,76.8,59.9,30.05,East,81,1.0,6.0,56,0.00,,,0.00,WUHU216DAVISVP2,2013-08-05 18:23:00,
2013-08-05 11:29:00,77.2,60.0,30.05,SSW,197,1.0,6.0,55,0.00,,,0.00,WUHU216DAVISVP2,2013-08-05 18:29:00,
2013-08-05 11:34:00,77.4,59.6,30.05,NNE,13,0.0,6.0,54,0.00,,,0.00,WUHU216DAVISVP2,2013-08-05 18:34:00,
2013-08-05 11:39:00,77.4,59.6,30.04,SE,129,1.0,5.0,54,0.00,,,0.00,WUHU216DAVISVP2,2013-08-05 18:39:00,
2013-08-05 11:44:00,77.5,59.2,30.04,WSW,247,3.0,5.0,53,0.00,,,0.00,WUHU216DAVISVP2,2013-08-05 18:44:00,
2013-08-05 11:49:00,76.9,59.5,30.04,SW,215,5.0,7.0,55,0.00,,,0.00,WUHU216DAVISVP2,2013-08-05 18:49:00,
2013-08-05 11:54:00,77.0,58.7,30.04,WSW,250,7.0,7.0,53,0.00,,,0.00,WUHU216DAVISVP2,2013-08-05 18:54:00,
2013-08-05 11:59:00,76.2,59.5,30.04,SSW,208,2.0,8.0,56,0.00,,,0.00,WUHU216DAVISVP2,2013-08-05 18:59:00,
2013-08-05 12:04:00,76.9,59.7,30.04,SSW,204,2.0,10.0,55,0.00,,,0.00,WUHU216DAVISVP2,2013-08-05 19:04:00,
2013-08-05 12:10:00,76.6,58.9,30.04,SSE,166,0.0,10.0,54,0.00,,,0.00,WUHU216DAVISVP2,2013-08-05 19:10:00,
2013-08-05 12:15:00,76.7,59.3,30.04,SW,222,6.0,9.0,55,0.00,,,0.00,WUHU216DAVISVP2,2013-08-05 19:15:00,
2013-08-05 12:20:00,76.7,59.5,30.04,ESE,104,0.0,10.0,55,0.00,,,0.00,WUHU216DAVISVP2,2013-08-05 19:20:00,
2013-08-05 12:25:00,78.2,59.8,30.04,ENE,73,0.0,10.0,53,0.00,,,0.00,WUHU216DAVISVP2,2013-08-05 19:25:00,
2013-08-05 12:30:00,79.4,60.4,30.04,WNW,285,0.0,9.0,52,0.00,,,0.00,WUHU216DAVISVP2,2013-08-05 19:30:00,
2013-08-05 12:35:00,80.2,59.3,30.04,NNE,18,3.0,9.0,49,0.00,,,0.00,WUHU216DAVISVP2,2013-08-05 19:35:00,
2013-08-05 12:40:00,79.2,58.5,30.04,ENE,68,2.0,5.0,49,0.00,,,0.00,WUHU216DAVISVP2,2013-08-05 19:40:00,
2013-08-05 12:45:00,79.3,58.6,30.04,SW,226,0.0,5.0,49,0.00,,,0.00,WUHU216DAVISVP2,2013-08-05 19:45:00,
2013-08-05 12:50:00,80.0,59.2,30.03,WNW,293,1.0,5.0,49,0.00,,,0.00,WUHU216DAVISVP2,2013-08-05 19:50:00,
2013-08-05 12:55:00,80.4,59.0,30.03,NE,35,0.0,5.0,48,0.00,,,0.00,WUHU216DAVISVP2,2013-08-05 19:55:00,
2013-08-05 13:01:00,80.8,59.4,30.03,NE,56,1.0,4.0,48,0.00,,,0.00,WUHU216DAVISVP2,2013-08-05 20:01:00,
2013-08-05 13:06:00,81.2,59.6,30.03,NW,325,0.0,2.0,48,0.00,,,0.00,WUHU216DAVISVP2,2013-08-05 20:06:00,
2013-08-05 13:11:00,81.7,59.6,30.03,ENE,76,0.0,2.0,47,0.00,,,0.00,WUHU216DAVISVP2,2013-08-05 20:11:00,
2013-08-05 13:17:00,81.8,59.7,30.03,North,8,2.0,2.0,47,0.00,,,0.00,WUHU216DAVISVP2,2013-08-05 20:17:00,
2013-08-05 13:22:00,80.6,57.9,30.03,North,356,1.0,8.0,46,0.00,,,0.00,WUHU216DAVISVP2,2013-08-05 20:22:00,
2013-08-05 13:27:00,80.8,60.0,30.02,NNE,22,2.0,8.0,49,0.00,,,0.00,WUHU216DAVISVP2,2013-08-05 20:27:00,
2013-08-05 13:33:00,80.5,58.5,30.02,NNW,347,1.0,8.0,47,0.00,,,0.00,WUHU216DAVISVP2,2013-08-05 20:33:00,
2013-08-05 13:38:00,80.4,59.6,30.02,East,83,1.0,8.0,49,0.00,,,0.00,WUHU216DAVISVP2,2013-08-05 20:38:00,
2013-08-05 13:43:00,80.4,59.0,30.02,North,10,3.0,5.0,48,0.00,,,0.00,WUHU216DAVISVP2,2013-08-05 20:43:00,
2013-08-05 13:48:00,79.3,59.2,30.02,North,359,0.0,5.0,50,0.00,,,0.00,WUHU216DAVISVP2,2013-08-05 20:48:00,
2013-08-05 13:53:00,80.3,60.1,30.02,North,4,0.0,5.0,50,0.00,,,0.00,WUHU216DAVISVP2,2013-08-05 20:53:00,
2013-08-05 13:58:00,80.8,60.0,30.02,SSW,205,1.0,5.0,49,0.00,,,0.00,WUHU216DAVISVP2,2013-08-05 20:58:00,
2013-08-05 14:04:00,81.2,59.7,30.02,WNW,284,0.0,5.0,48,0.00,,,0.00,WUHU216DAVISVP2,2013-08-05 21:04:00,
2013-08-05 14:09:00,82.3,60.1,30.02,WSW,238,0.0,3.0,47,0.00,,,0.00,WUHU216DAVISVP2,2013-08-05 21:09:00,
2013-08-05 14:14:00,82.7,59.8,30.02,North,11,1.0,3.0,46,0.00,,,0.00,WUHU216DAVISVP2,2013-08-05 21:14:00,
2013-08-05 14:19:00,82.5,59.7,30.02,SSW,210,0.0,3.0,46,0.00,,,0.00,WUHU216DAVISVP2,2013-08-05 21:19:00,
2013-08-05 14:24:00,82.5,59.7,30.01,North,353,1.0,4.0,46,0.00,,,0.00,WUHU216DAVISVP2,2013-08-05 21:24:00,
2013-08-05 14:29:00,82.5,59.7,30.01,East,101,0.0,4.0,46,0.00,,,0.00,WUHU216DAVISVP2,2013-08-05 21:29:00,
2013-08-05 14:34:00,82.2,59.4,30.01,North,6,1.0,6.0,46,0.00,,,0.00,WUHU216DAVISVP2,2013-08-05 21:34:00,
2013-08-05 14:40:00,82.5,59.7,30.01,SE,138,0.0,6.0,46,0.00,,,0.00,WUHU216DAVISVP2,2013-08-05 21:40:00,
2013-08-05 14:45:00,83.4,59.8,30.01,East,83,0.0,5.0,45,0.00,,,0.00,WUHU216DAVISVP2,2013-08-05 21:45:00,
2013-08-05 14:50:00,84.2,59.9,30.01,East,85,0.0,5.0,44,0.00,,,0.00,WUHU216DAVISVP2,2013-08-05 21:50:00,
2013-08-05 14:55:00,84.4,58.8,30.01,WSW,242,0.0,3.0,42,0.00,,,0.00,WUHU216DAVISVP2,2013-08-05 21:55:00,
2013-08-05 15:00:00,85.0,59.3,30.01,SW,215,1.0,2.0,42,0.00,,,0.00,WUHU216DAVISVP2,2013-08-05 22:00:00,
2013-08-05 15:05:00,84.8,59.1,30.01,NW,315,1.0,3.0,42,0.00,,,0.00,WUHU216DAVISVP2,2013-08-05 22:05:00,
2013-08-05 15:10:00,84.7,59.7,30.00,ENE,73,1.0,3.0,43,0.00,,,0.00,WUHU216DAVISVP2,2013-08-05 22:10:00,
2013-08-05 15:15:00,84.6,59.6,30.00,NE,43,1.0,3.0,43,0.00,,,0.00,WUHU216DAVISVP2,2013-08-05 22:15:00,
2013-08-05 15:20:00,84.5,59.6,30.00,SSE,150,0.0,3.0,43,0.00,,,0.00,WUHU216DAVISVP2,2013-08-05 22:20:00,
2013-08-05 15:26:00,84.4,59.5,30.00,SW,224,0.0,3.0,43,0.00,,,0.00,WUHU216DAVISVP2,2013-08-05 22:26:00,
2013-08-05 15:31:00,84.8,59.8,30.00,SSW,210,1.0,2.0,43,0.00,,,0.00,WUHU216DAVISVP2,2013-08-05 22:31:00,
2013-08-05 15:36:00,85.2,59.5,30.00,NE,46,1.0,2.0,42,0.00,,,0.00,WUHU216DAVISVP2,2013-08-05 22:36:00,
2013-08-05 15:41:00,84.8,59.8,29.99,NNE,27,0.0,5.0,43,0.00,,,0.00,WUHU216DAVISVP2,2013-08-05 22:41:00,
2013-08-05 15:46:00,83.6,58.7,29.99,NNW,342,2.0,6.0,43,0.00,,,0.00,WUHU216DAVISVP2,2013-08-05 22:46:00,
2013-08-05 15:51:00,83.6,59.4,29.99,NE,43,0.0,6.0,44,0.00,,,0.00,WUHU216DAVISVP2,2013-08-05 22:51:00,
2013-08-05 15:56:00,84.3,60.0,29.99,NNE,18,1.0,5.0,44,0.00,,,0.00,WUHU216DAVISVP2,2013-08-05 22:56:00,
2013-08-05 16:01:00,84.8,58.5,29.99,NNE,33,2.0,5.0,41,0.00,,,0.00,WUHU216DAVISVP2,2013-08-05 23:01:00,
2013-08-05 16:06:00,84.7,56.9,29.99,NNE,22,2.0,5.0,39,0.00,,,0.00,WUHU216DAVISVP2,2013-08-05 23:06:00,
2013-08-05 16:11:00,84.2,57.2,29.99,North,354,2.0,5.0,40,0.00,,,0.00,WUHU216DAVISVP2,2013-08-05 23:11:00,
2013-08-05 16:17:00,83.8,55.5,29.99,NNE,15,2.0,5.0,38,0.00,,,0.00,WUHU216DAVISVP2,2013-08-05 23:17:00,
2013-08-05 16:22:00,83.8,56.1,29.98,North,354,0.0,5.0,39,0.00,,,0.00,WUHU216DAVISVP2,2013-08-05 23:22:00,
2013-08-05 16:27:00,83.9,55.5,29.98,NNW,339,1.0,5.0,38,0.00,,,0.00,WUHU216DAVISVP2,2013-08-05 23:27:00,
2013-08-05 16:32:00,83.7,56.1,29.98,North,356,4.0,5.0,39,0.00,,,0.00,WUHU216DAVISVP2,2013-08-05 23:32:00,
2013-08-05 16:37:00,83.2,55.6,29.98,North,11,1.0,5.0,39,0.00,,,0.00,WUHU216DAVISVP2,2013-08-05 23:37:00,
2013-08-05 16:42:00,82.9,56.1,29.98,North,351,4.0,8.0,40,0.00,,,0.00,WUHU216DAVISVP2,2013-08-05 23:42:00,
2013-08-05 16:48:00,82.6,55.8,29.98,NNW,340,4.0,8.0,40,0.00,,,0.00,WUHU216DAVISVP2,2013-08-05 23:48:00,
2013-08-05 16:53:00,82.6,57.2,29.97,NNE,25,1.0,8.0,42,0.00,,,0.00,WUHU216DAVISVP2,2013-08-05 23:53:00,
2013-08-05 16:59:00,83.2,57.7,29.97,NNE,13,0.0,8.0,42,0.00,,,0.00,WUHU216DAVISVP2,2013-08-05 23:59:00,
2013-08-05 17:04:00,83.2,57.7,29.97,North,5,0.0,7.0,42,0.00,,,0.00,WUHU216DAVISVP2,2013-08-06 00:04:00,
2013-08-05 17:09:00,82.8,56.7,29.97,NNW,339,3.0,9.0,41,0.00,,,0.00,WUHU216DAVISVP2,2013-08-06 00:09:00,
2013-08-05 17:14:00,82.4,56.3,29.97,North,8,8.0,9.0,41,0.00,,,0.00,WUHU216DAVISVP2,2013-08-06 00:14:00,
2013-08-05 17:19:00,81.7,56.4,29.97,North,4,2.0,8.0,42,0.00,,,0.00,WUHU216DAVISVP2,2013-08-06 00:19:00,
2013-08-05 17:24:00,81.6,57.6,29.97,NE,34,0.0,8.0,44,0.00,,,0.00,WUHU216DAVISVP2,2013-08-06 00:24:00,
2013-08-05 17:29:00,81.4,56.8,29.97,North,352,4.0,9.0,43,0.00,,,0.00,WUHU216DAVISVP2,2013-08-06 00:29:00,
2013-08-05 17:34:00,81.2,57.2,29.96,NNE,30,6.0,9.0,44,0.00,,,0.00,WUHU216DAVISVP2,2013-08-06 00:34:00,
2013-08-05 17:40:00,80.6,57.3,29.96,North,9,6.0,10.0,45,0.00,,,0.00,WUHU216DAVISVP2,2013-08-06 00:40:00,
2013-08-05 17:45:00,80.4,57.7,29.96,WNW,289,0.0,10.0,46,0.00,,,0.00,WUHU216DAVISVP2,2013-08-06 00:45:00,
2013-08-05 17:50:00,80.5,57.9,29.96,NE,36,2.0,9.0,46,0.00,,,0.00,WUHU216DAVISVP2,2013-08-06 00:50:00,
2013-08-05 17:55:00,80.4,57.8,29.96,NE,53,0.0,9.0,46,0.00,,,0.00,WUHU216DAVISVP2,2013-08-06 00:55:00,
2013-08-05 18:01:00,80.2,58.1,29.96,North,1,3.0,7.0,47,0.00,,,0.00,WUHU216DAVISVP2,2013-08-06 01:01:00,
2013-08-05 18:06:00,80.0,58.6,29.96,NNE,15,1.0,7.0,48,0.00,,,0.00,WUHU216DAVISVP2,2013-08-06 01:06:00,
2013-08-05 18:11:00,80.3,58.9,29.96,North,349,0.0,5.0,48,0.00,,,0.00,WUHU216DAVISVP2,2013-08-06 01:11:00,
2013-08-05 18:16:00,80.3,58.9,29.96,NE,39,0.0,5.0,48,0.00,,,0.00,WUHU216DAVISVP2,2013-08-06 01:16:00,
2013-08-05 18:21:00,80.1,58.7,29.96,NE,39,0.0,2.0,48,0.00,,,0.00,WUHU216DAVISVP2,2013-08-06 01:21:00,
2013-08-05 18:27:00,79.9,58.5,29.96,North,1,0.0,6.0,48,0.00,,,0.00,WUHU216DAVISVP2,2013-08-06 01:27:00,
2013-08-05 18:32:00,79.2,58.5,29.96,North,352,1.0,6.0,49,0.00,,,0.00,WUHU216DAVISVP2,2013-08-06 01:32:00,
2013-08-05 18:37:00,79.3,58.6,29.96,NNE,15,0.0,5.0,49,0.00,,,0.00,WUHU216DAVISVP2,2013-08-06 01:37:00,
2013-08-05 18:42:00,79.0,58.9,29.96,WSW,257,0.0,5.0,50,0.00,,,0.00,WUHU216DAVISVP2,2013-08-06 01:42:00,
2013-08-05 18:47:00,78.4,58.9,29.96,NNE,15,1.0,3.0,51,0.00,,,0.00,WUHU216DAVISVP2,2013-08-06 01:47:00,
2013-08-05 18:53:00,78.1,58.6,29.96,NNE,23,0.0,3.0,51,0.00,,,0.00,WUHU216DAVISVP2,2013-08-06 01:53:00,
2013-08-05 18:58:00,77.7,58.2,29.96,NW,313,0.0,3.0,51,0.00,,,0.00,WUHU216DAVISVP2,2013-08-06 01:58:00,
2013-08-05 19:03:00,77.2,58.2,29.96,NW,308,0.0,4.0,52,0.00,,,0.00,WUHU216DAVISVP2,2013-08-06 02:03:00,
2013-08-05 19:08:00,76.8,58.4,29.96,NE,49,0.0,4.0,53,0.00,,,0.00,WUHU216DAVISVP2,2013-08-06 02:08:00,
2013-08-05 19:13:00,76.5,58.1,29.96,NNE,26,0.0,4.0,53,0.00,,,0.00,WUHU216DAVISVP2,2013-08-06 02:13:00,
2013-08-05 19:18:00,76.2,58.5,29.96,North,352,1.0,4.0,54,0.00,,,0.00,WUHU216DAVISVP2,2013-08-06 02:18:00,
2013-08-05 19:23:00,75.9,58.7,29.96,North,1,0.0,4.0,55,0.00,,,0.00,WUHU216DAVISVP2,2013-08-06 02:23:00,
2013-08-05 19:28:00,75.7,58.6,29.96,ENE,67,0.0,4.0,55,0.00,,,0.00,WUHU216DAVISVP2,2013-08-06 02:28:00,
2013-08-05 19:33:00,75.5,58.2,29.96,NE,46,0.0,4.0,55,0.00,,,0.00,WUHU216DAVISVP2,2013-08-06 02:33:00,
2013-08-05 19:38:00,75.3,58.7,29.96,NE,46,0.0,3.0,56,0.00,,,0.00,WUHU216DAVISVP2,2013-08-06 02:38:00,
2013-08-05 19:43:00,75.2,58.6,29.96,NNE,18,0.0,3.0,56,0.00,,,0.00,WUHU216DAVISVP2,2013-08-06 02:43:00,
2013-08-05 19:48:00,75.1,58.5,29.96,NNW,340,0.0,2.0,56,0.00,,,0.00,WUHU216DAVISVP2,2013-08-06 02:48:00,
2013-08-05 19:53:00,75.0,58.4,29.96,NNE,17,0.0,2.0,56,0.00,,,0.00,WUHU216DAVISVP2,2013-08-06 02:53:00,
2013-08-05 19:58:00,74.9,58.3,29.96,North,11,0.0,1.0,56,0.00,,,0.00,WUHU216DAVISVP2,2013-08-06 02:58:00,
2013-08-05 20:03:00,74.8,58.7,29.96,WSW,249,0.0,2.0,57,0.00,,,0.00,WUHU216DAVISVP2,2013-08-06 03:03:00,
2013-08-05 20:08:00,74.0,58.5,29.96,ENE,62,0.0,2.0,58,0.00,,,0.00,WUHU216DAVISVP2,2013-08-06 03:08:00,
2013-08-05 20:13:00,73.4,58.4,29.96,SW,229,0.0,2.0,59,0.00,,,0.00,WUHU216DAVISVP2,2013-08-06 03:13:00,
2013-08-05 20:19:00,72.8,58.3,29.96,WSW,250,0.0,2.0,60,0.00,,,0.00,WUHU216DAVISVP2,2013-08-06 03:19:00,
2013-08-05 20:24:00,72.2,58.2,29.96,SW,219,0.0,2.0,61,0.00,,,0.00,WUHU216DAVISVP2,2013-08-06 03:24:00,
2013-08-05 20:29:00,71.6,58.1,29.97,North,11,0.0,1.0,62,0.00,,,0.00,WUHU216DAVISVP2,2013-08-06 03:29:00,
2013-08-05 20:34:00,71.0,57.8,29.97,NNE,18,0.0,1.0,63,0.00,,,0.00,WUHU216DAVISVP2,2013-08-06 03:34:00,
2013-08-05 20:39:00,70.6,58.0,29.97,NNE,18,0.0,1.0,64,0.00,,,0.00,WUHU216DAVISVP2,2013-08-06 03:39:00,
2013-08-05 20:44:00,70.2,58.1,29.97,NNE,17,0.0,1.0,65,0.00,,,0.00,WUHU216DAVISVP2,2013-08-06 03:44:00,
2013-08-05 20:49:00,69.8,58.1,29.97,NNE,17,0.0,1.0,66,0.00,,,0.00,WUHU216DAVISVP2,2013-08-06 03:49:00,
2013-08-05 20:54:00,69.4,58.2,29.97,NW,321,0.0,0.0,67,0.00,,,0.00,WUHU216DAVISVP2,2013-08-06 03:54:00,
2013-08-05 20:59:00,69.0,57.8,29.97,NW,321,0.0,1.0,67,0.00,,,0.00,WUHU216DAVISVP2,2013-08-06 03:59:00,
2013-08-05 21:01:00,68.9,57.7,29.97,NW,321,0.0,1.0,67,0.00,,,0.00,WUHU216DAVISVP2,2013-08-06 04:01:00,
2013-08-05 21:06:00,68.3,57.7,29.97,NW,323,0.0,1.0,69,0.00,,,0.00,WUHU216DAVISVP2,2013-08-06 04:06:00,
2013-08-05 21:11:00,67.8,57.7,29.97,NNW,338,0.0,1.0,70,0.00,,,0.00,WUHU216DAVISVP2,2013-08-06 04:11:00,
2013-08-05 21:16:00,67.7,57.7,29.97,North,5,0.0,1.0,70,0.00,,,0.00,WUHU216DAVISVP2,2013-08-06 04:16:00,
2013-08-05 21:21:00,67.5,57.9,29.97,SW,226,0.0,1.0,71,0.00,,,0.00,WUHU216DAVISVP2,2013-08-06 04:21:00,
2013-08-05 21:26:00,67.2,57.5,29.97,WSW,242,0.0,1.0,71,0.00,,,0.00,WUHU216DAVISVP2,2013-08-06 04:26:00,
2013-08-05 21:31:00,67.0,57.8,29.97,WSW,245,0.0,1.0,72,0.00,,,0.00,WUHU216DAVISVP2,2013-08-06 04:31:00,
2013-08-05 21:36:00,67.0,57.7,29.97,WSW,245,0.0,1.0,72,0.00,,,0.00,WUHU216DAVISVP2,2013-08-06 04:36:00,
2013-08-05 21:41:00,67.0,57.8,29.97,WSW,245,0.0,1.0,72,0.00,,,0.00,WUHU216DAVISVP2,2013-08-06 04:41:00,
2013-08-05 21:46:00,66.9,57.7,29.98,WSW,244,0.0,0.0,72,0.00,,,0.00,WUHU216DAVISVP2,2013-08-06 04:46:00,
2013-08-05 21:51:00,66.6,57.4,29.98,WSW,245,0.0,0.0,72,0.00,,,0.00,WUHU216DAVISVP2,2013-08-06 04:51:00,
2013-08-05 21:56:00,66.7,56.6,29.98,NNW,345,0.0,2.0,70,0.00,,,0.00,WUHU216DAVISVP2,2013-08-06 04:56:00,
2013-08-05 22:01:00,67.1,56.4,29.98,North,8,0.0,2.0,68,0.00,,,0.00,WUHU216DAVISVP2,2013-08-06 05:01:00,
2013-08-05 22:06:00,67.7,54.8,29.98,NNE,13,1.0,4.0,63,0.00,,,0.00,WUHU216DAVISVP2,2013-08-06 05:06:00,
2013-08-05 22:11:00,68.1,56.9,29.98,SW,229,0.0,4.0,67,0.00,,,0.00,WUHU216DAVISVP2,2013-08-06 05:11:00,
2013-08-05 22:16:00,67.6,57.2,29.98,SW,228,0.0,4.0,69,0.00,,,0.00,WUHU216DAVISVP2,2013-08-06 05:16:00,
2013-08-05 22:21:00,66.8,57.3,29.98,SW,229,0.0,4.0,71,0.00,,,0.00,WUHU216DAVISVP2,2013-08-06 05:21:00,
2013-08-05 22:26:00,66.1,56.8,29.98,WSW,242,0.0,2.0,72,0.00,,,0.00,WUHU216DAVISVP2,2013-08-06 05:26:00,
2013-08-05 22:31:00,65.4,57.0,29.98,WSW,239,0.0,1.0,74,0.00,,,0.00,WUHU216DAVISVP2,2013-08-06 05:31:00,
2013-08-05 22:36:00,64.9,56.5,29.98,WSW,239,0.0,1.0,74,0.00,,,0.00,WUHU216DAVISVP2,2013-08-06 05:36:00,
2013-08-05 22:41:00,64.6,55.9,29.98,NNW,347,4.0,4.0,73,0.00,,,0.00,WUHU216DAVISVP2,2013-08-06 05:41:00,
2013-08-05 22:46:00,65.0,56.3,29.98,NNE,20,0.0,4.0,73,0.00,,,0.00,WUHU216DAVISVP2,2013-08-06 05:46:00,
2013-08-05 22:51:00,64.9,55.8,29.98,NNW,330,0.0,4.0,72,0.00,,,0.00,WUHU216DAVISVP2,2013-08-06 05:51:00,
2013-08-05 22:56:00,65.0,55.0,29.99,NNE,13,0.0,4.0,70,0.00,,,0.00,WUHU216DAVISVP2,2013-08-06 05:56:00,
2013-08-05 23:01:00,65.3,55.4,29.98,NNE,16,0.0,1.0,70,0.00,,,0.00,WUHU216DAVISVP2,2013-08-06 06:01:00,
2013-08-05 23:06:00,65.4,55.1,29.98,NNE,16,0.0,1.0,69,0.00,,,0.00,WUHU216DAVISVP2,2013-08-06 06:06:00,
2013-08-05 23:11:00,65.1,56.0,29.99,NNE,16,0.0,1.0,72,0.00,,,0.00,WUHU216DAVISVP2,2013-08-06 06:11:00,
2013-08-05 23:16:00,64.7,56.3,29.99,NNW,336,0.0,1.0,74,0.00,,,0.00,WUHU216DAVISVP2,2013-08-06 06:16:00,
2013-08-05 23:21:00,64.7,54.5,29.98,NNE,17,0.0,3.0,69,0.00,,,0.00,WUHU216DAVISVP2,2013-08-06 06:21:00,
2013-08-05 23:26:00,65.2,54.0,29.99,North,357,1.0,3.0,67,0.00,,,0.00,WUHU216DAVISVP2,2013-08-06 06:26:00,
2013-08-05 23:31:00,65.5,54.0,29.99,North,357,0.0,3.0,66,0.00,,,0.00,WUHU216DAVISVP2,2013-08-06 06:31:00,
2013-08-05 23:36:00,65.4,53.9,29.99,East,91,0.0,3.0,66,0.00,,,0.00,WUHU216DAVISVP2,2013-08-06 06:36:00,
2013-08-05 23:41:00,65.6,53.7,29.98,East,89,0.0,2.0,65,0.00,,,0.00,WUHU216DAVISVP2,2013-08-06 06:41:00,
2013-08-05 23:46:00,65.8,53.7,29.99,ENE,70,0.0,1.0,65,0.00,,,0.00,WUHU216DAVISVP2,2013-08-06 06:46:00,
2013-08-05 23:51:00,65.6,54.1,29.99,ENE,70,0.0,1.0,66,0.00,,,0.00,WUHU216DAVISVP2,2013-08-06 06:51:00,
2013-08-05 23:56:00,65.2,54.1,29.99,NNW,336,0.0,1.0,67,0.00,,,0.00,WUHU216DAVISVP2,2013-08-06 06:56:00,